Alabaster, AL

6:25 AM CDT on August 24, 2019 (GMT -0500)
Shelby County

Weather History for KEET - July, 2019

Change the Weather History Date:

Monday, July 22, 2019

  Actual Average Record
Temperature  
Mean Temperature 81 °F 81 °F  
Max Temperature 90 °F 91 °F 98 °F (1972)
Min Temperature 71 °F 71 °F 58 °F (1963)
Cooling Degree Days 16 16  
Month to date cooling degree days 376 344  
Year to date cooling degree days 1168 987  
Since 1 June cooling degree days 771 718  
Growing Degree Days 31 (Base 50)    
Moisture  
Dew Point 71 °F    
Average Humidity 75    
Maximum Humidity 100    
Minimum Humidity 50    
Precipitation  
Precipitation 0.00 in 0.14 in 1.49 in (2008)
Month to date precipitation 0.82 3.38  
Year to date precipitation 31.25 31.94  
Sea Level Pressure  
Sea Level Pressure 29.98 in    
Wind  
Wind Speed 4 mph (SW)    
Max Wind Speed 13 mph    
Max Gust Speed 16 mph    
Visibility 10 miles    
Events      
T = Trace of Precipitation, MM = Missing Value Source: NWS Daily Summary

Daily Weather History Graph

Daily Weather History Graph

Search for Another Location

Airport or City:

Astronomy

Jul. 22, 2019 Rise Set
Actual Time 5:53 AM CDT 7:53 PM CDT
Civil Twilight 5:25 AM CDT 8:21 PM CDT
Nautical Twilight 4:51 AM CDT 8:54 PM CDT
Astronomical Twilight 4:15 AM CDT 9:30 PM CDT
Moon 11:29 PM CDT (7/22) 10:55 AM CDT (7/22)
Length of Visible Light 14h 55m
Length of Day
14h 00m
Waning Gibbous, 72% of the Moon is Illuminated
Jul 22
Waning Gibbous
Jul 24
Last Quarter
Jul 31
New
Aug 7
First Quarter
Aug 15
Full

Hourly Weather History & Observations

Time (CDT) Temp. Heat Index Dew Point Humidity Pressure Visibility Wind Dir Wind Speed Gust Speed Precip Events Conditions
12:53 AM 75.0 °F - 71.1 °F 87% 29.99 in 10.0 mi Calm Calm - N/A   Clear
1:53 AM 73.9 °F - 71.1 °F 91% 29.98 in 10.0 mi Calm Calm - N/A   Clear
2:53 AM 73.0 °F - 71.1 °F 93% 29.98 in 10.0 mi Calm Calm - N/A   Clear
3:53 AM 73.0 °F - 71.1 °F 93% 29.97 in 10.0 mi Calm Calm - N/A   Clear
4:53 AM 72.0 °F - 71.1 °F 97% 29.98 in 9.0 mi Calm Calm - N/A   Clear
5:53 AM 72.0 °F - 70.0 °F 93% 30.00 in 9.0 mi South 3.5 mph - N/A   Clear
6:48 AM 73.4 °F - 71.6 °F 94% 30.03 in 6.0 mi South 4.6 mph - N/A   Scattered Clouds
6:53 AM 73.0 °F - 72.0 °F 96% 30.01 in 3.0 mi South 3.5 mph - N/A   Mostly Cloudy
7:53 AM 75.0 °F - 72.0 °F 90% 30.03 in 9.0 mi Variable 4.6 mph - N/A   Overcast
8:03 AM 75.0 °F - 72.0 °F 90% 30.05 in 10.0 mi SSW 4.6 mph - N/A   Mostly Cloudy
8:16 AM 75.9 °F - 72.0 °F 87% 30.05 in 10.0 mi West 4.6 mph - N/A   Scattered Clouds
8:38 AM 77.0 °F - 71.1 °F 82% 30.05 in 10.0 mi WSW 5.8 mph - N/A   Mostly Cloudy
8:53 AM 77.0 °F - 72.0 °F 84% 30.03 in 10.0 mi WSW 5.8 mph - N/A   Mostly Cloudy
9:05 AM 78.1 °F - 72.0 °F 81% 30.05 in 10.0 mi Variable 3.5 mph - N/A   Scattered Clouds
9:23 AM 78.1 °F - 71.1 °F 79% 30.05 in 10.0 mi Variable 5.8 mph - N/A   Mostly Cloudy
9:36 AM 78.1 °F - 71.1 °F 79% 30.05 in 10.0 mi SW 5.8 mph - N/A   Scattered Clouds
9:53 AM 80.1 °F 83.6 °F 71.1 °F 74% 30.03 in 10.0 mi SSW 5.8 mph - N/A   Clear
10:13 AM 79.0 °F - 70.0 °F 74% 30.04 in 10.0 mi Variable 6.9 mph - N/A   Mostly Cloudy
10:33 AM 80.1 °F 82.9 °F 69.1 °F 69% 30.04 in 10.0 mi Variable 5.8 mph - N/A   Mostly Cloudy
10:53 AM 81.0 °F 84.4 °F 70.0 °F 69% 30.01 in 10.0 mi West 5.8 mph - N/A   Mostly Cloudy
11:53 AM 82.0 °F 84.9 °F 68.0 °F 62% 30.00 in 10.0 mi SW 5.8 mph - N/A   Partly Cloudy
12:53 PM 88.0 °F 92.1 °F 69.1 °F 53% 29.98 in 10.0 mi Variable 5.8 mph - N/A   Partly Cloudy
1:53 PM 87.1 °F 90.6 °F 68.0 °F 53% 29.95 in 10.0 mi North - - N/A   Scattered Clouds
2:53 PM 88.0 °F 91.4 °F 68.0 °F 51% 29.93 in 10.0 mi Variable 3.5 mph - N/A   Mostly Cloudy
3:53 PM 88.0 °F 90.7 °F 66.9 °F 49% 29.91 in 10.0 mi SSW 4.6 mph - N/A   Scattered Clouds
4:53 PM 90.0 °F 94.5 °F 69.1 °F 50% 29.89 in 10.0 mi South 9.2 mph - N/A   Mostly Cloudy
5:53 PM 87.1 °F 91.3 °F 69.1 °F 55% 29.89 in 10.0 mi SSW 6.9 mph - N/A   Scattered Clouds
6:53 PM 84.9 °F 89.4 °F 70.0 °F 61% 29.90 in 10.0 mi SW 6.9 mph - N/A   Overcast
7:53 PM 82.9 °F 87.0 °F 70.0 °F 65% 29.91 in 10.0 mi Calm Calm - N/A   Overcast
8:53 PM 81.0 °F 84.9 °F 71.1 °F 72% 29.93 in 10.0 mi West 3.5 mph - N/A   Overcast
9:53 PM 79.0 °F - 72.0 °F 79% 29.94 in 10.0 mi Calm Calm - N/A   Partly Cloudy
10:53 PM 79.0 °F - 72.0 °F 79% 29.93 in 10.0 mi SSW 3.5 mph - N/A   Partly Cloudy
11:53 PM 78.1 °F - 72.0 °F 81% 29.92 in 10.0 mi Calm Calm - N/A   Mostly Cloudy